Flag for Gambia Weather past 2 weeks in Serekunda, Gambia

Now
73 °F

Clear.


Feels Like: 76 °F
Forecast: N/A
Wind: 8 mph from Northwest

Location: Banjul / Yundum

Current Time: Dec 18, 2014 at 9:50:20 PM

Latest Report: Dec 18, 2014 at 9:00 PM


Visibility: 10 mi

Pressure: 29.89 "Hg

Humidity: 69%

Dew point: 63 °F

Location of SerekundaLocation

Historic Weather in Serekunda — Graph

°F

Serekunda temperature yesterday

Maximum temperature yesterday: 88 °F (at 4:00 PM)
Minimum temperature yesterday: 66 °F (at 3:00 AM)
Average temperature yesterday: 73 °F

Past Weeks' High & Low Weather Summary

 TemperatureHumidityPressure
High97 °F (Dec 6, 4:00 PM)100% (Dec 9, 5:00 AM)32.75 "Hg (Dec 9, 5:00 AM)
Low61 °F (Dec 13, 7:00 AM)12% (Dec 13, 11:00 AM)29.77 "Hg (Dec 8, 4:00 PM)
Average76 °F48%29.88 "Hg
* Reported Dec 3 8:00 PM — Dec 18 8:00 PM, Serekunda, Weather by CustomWeather, © 2014

Note: Actual official high and low records may vary slightly from our data, if they occured in-between our weather recording intervals... More about our weather records

Advertising

Serekunda weather history for previous 24 hours

 ConditionsComfort  
Time TempWeatherWind HumidityBarometerVisibility
8:00 PM
Dec 18
75 °FClear.6 mph57%29.86 "Hg10 mi
7:00 PM79 °FClear.No wind48%29.86 "Hg10 mi
6:00 PM86 °FSunny.No wind33%29.83 "Hg10 mi
5:00 PM90 °FSunny.6 mph21%29.83 "Hg10 mi
4:00 PM91 °FSunny.8 mph23%29.83 "Hg10 mi
3:00 PM90 °FSunny.9 mph20%29.83 "Hg10 mi
2:00 PM88 °FSunny.10 mph21%29.89 "Hg10 mi
1:00 PM86 °FSunny.12 mph25%29.86 "Hg10 mi
12:00 PM82 °FSunny.12 mph25%29.89 "Hg10 mi
11:00 AM77 °FSunny.12 mph30%29.92 "Hg10 mi
10:00 AM72 °FSunny.17 mph38%29.92 "Hg10 mi
9:00 AM66 °FSunny.10 mph49%29.92 "Hg10 mi
8:00 AM66 °FSunny.6 mph40%29.89 "Hg10 mi
7:00 AM66 °FClear.6 mph40%29.86 "Hg10 mi
6:00 AM66 °FClear.6 mph40%29.89 "Hg10 mi
5:00 AM68 °FClear.7 mph38%29.86 "Hg10 mi
4:00 AM66 °FClear.8 mph46%29.86 "Hg10 mi
3:00 AM68 °FClear.9 mph40%29.89 "Hg10 mi
2:00 AM66 °FClear.No wind56%29.92 "Hg10 mi
1:00 AM70 °FClear.6 mph57%29.89 "Hg10 mi
12:00 AM70 °FClear.No wind69%29.92 "Hg10 mi
11:00 PM
Dec 17
70 °FClear.No wind73%29.92 "Hg10 mi
10:00 PM70 °FClear.No wind78%29.89 "Hg10 mi
9:00 PM70 °FClear.No wind69%29.89 "Hg10 mi
Weather by CustomWeather, © 2014

See weather overviewHow to use our weather pages